Time,TemperatureF,DewpointF,PressureIn,WindDirection,WindDirectionDegrees,WindSpeedMPH,WindSpeedGustMPH,Humidity,HourlyPrecipIn,Conditions,Clouds,dailyrainin,SoftwareType,DateUTC
2013-06-07 00:05:00,59.5,50.1,28.44,WSW,254,0.0,0.0,71,0.00,,---,0.00,VWS V14.01,2013-06-07 05:05:00,
2013-06-07 00:10:00,59.5,50.1,28.44,WSW,254,0.0,0.0,71,0.00,,---,0.00,VWS V14.01,2013-06-07 05:10:00,
2013-06-07 00:15:00,59.4,50.0,28.44,WSW,254,0.0,0.0,71,0.00,,---,0.00,VWS V14.01,2013-06-07 05:15:00,
2013-06-07 00:20:00,59.2,50.2,28.44,WSW,254,0.0,0.0,72,0.00,,---,0.00,VWS V14.01,2013-06-07 05:20:00,
2013-06-07 00:25:00,59.2,50.2,28.47,WSW,254,0.0,0.0,72,0.00,,---,0.00,VWS V14.01,2013-06-07 05:25:00,
2013-06-07 00:30:00,59.0,50.0,28.47,WSW,254,0.0,0.0,72,0.00,,---,0.00,VWS V14.01,2013-06-07 05:30:00,
2013-06-07 00:35:00,58.8,50.2,28.47,WSW,254,0.0,0.0,73,0.00,,---,0.00,VWS V14.01,2013-06-07 05:35:00,
2013-06-07 00:40:00,58.8,50.2,28.47,WSW,254,0.0,0.0,73,0.00,,---,0.00,VWS V14.01,2013-06-07 05:40:00,
2013-06-07 00:45:00,58.6,50.4,28.47,WSW,254,0.0,0.0,74,0.00,,---,0.00,VWS V14.01,2013-06-07 05:45:00,
2013-06-07 00:51:00,58.5,50.6,28.47,WSW,254,0.0,0.0,75,0.00,,---,0.00,VWS V14.01,2013-06-07 05:51:00,
2013-06-07 00:56:00,58.5,50.6,28.47,WSW,254,0.0,0.0,75,0.00,,---,0.00,VWS V14.01,2013-06-07 05:56:00,
2013-06-07 01:02:00,58.3,50.4,28.47,WSW,254,0.0,0.0,75,0.00,,---,0.00,VWS V14.01,2013-06-07 06:02:00,
2013-06-07 01:07:00,58.1,50.6,28.44,WSW,254,0.0,0.0,76,0.00,,---,0.00,VWS V14.01,2013-06-07 06:07:00,
2013-06-07 01:12:00,58.1,50.6,28.44,WSW,254,0.0,0.0,76,0.00,,---,0.00,VWS V14.01,2013-06-07 06:12:00,
2013-06-07 01:17:00,57.9,50.8,28.44,WSW,254,0.0,0.0,77,0.00,,---,0.00,VWS V14.01,2013-06-07 06:17:00,
2013-06-07 01:22:00,57.9,50.8,28.47,WSW,254,0.0,0.0,77,0.00,,---,0.00,VWS V14.01,2013-06-07 06:22:00,
2013-06-07 01:27:00,57.7,50.6,28.47,WSW,254,0.0,0.0,77,0.00,,---,0.00,VWS V14.01,2013-06-07 06:27:00,
2013-06-07 01:32:00,57.7,50.9,28.47,WSW,254,0.0,0.0,78,0.00,,---,0.00,VWS V14.01,2013-06-07 06:32:00,
2013-06-07 01:37:00,57.6,51.1,28.44,WSW,254,0.0,0.0,79,0.00,,---,0.00,VWS V14.01,2013-06-07 06:37:00,
2013-06-07 01:42:00,57.6,51.1,28.44,WSW,254,0.0,0.0,79,0.00,,---,0.00,VWS V14.01,2013-06-07 06:42:00,
2013-06-07 01:48:00,57.6,51.1,28.44,WSW,254,0.0,0.0,79,0.00,,---,0.00,VWS V14.01,2013-06-07 06:48:00,
2013-06-07 01:53:00,57.4,51.3,28.47,WSW,254,0.0,0.0,80,0.00,,---,0.00,VWS V14.01,2013-06-07 06:53:00,
2013-06-07 01:58:00,57.4,51.3,28.47,WSW,254,0.0,0.0,80,0.00,,---,0.00,VWS V14.01,2013-06-07 06:58:00,
2013-06-07 02:03:00,57.2,51.1,28.47,WSW,254,0.0,0.0,80,0.00,,---,0.00,VWS V14.01,2013-06-07 07:03:00,
2013-06-07 02:08:00,57.2,51.4,28.44,WSW,254,0.0,0.0,81,0.00,,---,0.00,VWS V14.01,2013-06-07 07:08:00,
2013-06-07 02:13:00,57.0,51.3,28.44,WSW,254,0.0,0.0,81,0.00,,---,0.00,VWS V14.01,2013-06-07 07:13:00,
2013-06-07 02:18:00,56.8,51.1,28.44,WSW,254,0.0,0.0,81,0.00,,---,0.00,VWS V14.01,2013-06-07 07:18:00,
2013-06-07 02:23:00,56.7,50.9,28.47,WSW,254,0.0,0.0,81,0.00,,---,0.00,VWS V14.01,2013-06-07 07:23:00,
2013-06-07 02:28:00,56.5,51.1,28.47,WSW,254,0.0,0.0,82,0.00,,---,0.00,VWS V14.01,2013-06-07 07:28:00,
2013-06-07 02:33:00,56.5,51.1,28.47,WSW,254,0.0,0.0,82,0.00,,---,0.00,VWS V14.01,2013-06-07 07:33:00,
2013-06-07 02:39:00,56.3,50.9,28.47,WSW,254,0.0,0.0,82,0.00,,---,0.00,VWS V14.01,2013-06-07 07:39:00,
2013-06-07 02:44:00,56.1,50.7,28.47,WSW,254,0.0,0.0,82,0.00,,---,0.00,VWS V14.01,2013-06-07 07:44:00,
2013-06-07 02:49:00,56.1,50.7,28.47,WSW,254,0.0,0.0,82,0.00,,---,0.00,VWS V14.01,2013-06-07 07:49:00,
2013-06-07 02:54:00,55.9,50.5,28.47,WSW,254,0.0,0.0,82,0.00,,---,0.00,VWS V14.01,2013-06-07 07:54:00,
2013-06-07 02:59:00,55.8,50.7,28.47,WSW,254,0.0,0.0,83,0.00,,---,0.00,VWS V14.01,2013-06-07 07:59:00,
2013-06-07 03:04:00,55.8,50.7,28.47,WSW,254,0.0,0.0,83,0.00,,---,0.00,VWS V14.01,2013-06-07 08:04:00,
2013-06-07 03:09:00,55.8,50.7,28.47,WSW,254,0.0,0.0,83,0.00,,---,0.00,VWS V14.01,2013-06-07 08:09:00,
2013-06-07 03:14:00,55.9,50.9,28.47,WSW,254,0.0,0.0,83,0.00,,---,0.00,VWS V14.01,2013-06-07 08:14:00,
2013-06-07 03:19:00,55.8,51.0,28.47,WSW,254,0.0,0.0,84,0.00,,---,0.00,VWS V14.01,2013-06-07 08:19:00,
2013-06-07 03:24:00,55.8,51.0,28.47,WSW,254,0.0,0.0,84,0.00,,---,0.00,VWS V14.01,2013-06-07 08:24:00,
2013-06-07 03:29:00,55.6,50.8,28.47,WSW,254,0.0,0.0,84,0.00,,---,0.00,VWS V14.01,2013-06-07 08:29:00,
2013-06-07 03:34:00,55.6,50.8,28.47,WSW,254,0.0,0.0,84,0.00,,---,0.00,VWS V14.01,2013-06-07 08:34:00,
2013-06-07 03:40:00,55.4,50.7,28.47,WSW,254,0.0,0.0,84,0.00,,---,0.00,VWS V14.01,2013-06-07 08:40:00,
2013-06-07 03:45:00,55.2,50.5,28.47,WSW,254,0.0,0.0,84,0.00,,---,0.00,VWS V14.01,2013-06-07 08:45:00,
2013-06-07 03:50:00,55.0,50.3,28.47,WSW,254,0.0,0.0,84,0.00,,---,0.00,VWS V14.01,2013-06-07 08:50:00,
2013-06-07 03:55:00,55.0,50.3,28.47,WSW,254,0.0,0.0,84,0.00,,---,0.00,VWS V14.01,2013-06-07 08:55:00,
2013-06-07 04:00:00,54.9,50.1,28.47,WSW,254,0.0,0.0,84,0.00,,---,0.00,VWS V14.01,2013-06-07 09:00:00,
2013-06-07 04:05:00,54.9,50.4,28.47,WSW,254,0.0,0.0,85,0.00,,---,0.00,VWS V14.01,2013-06-07 09:05:00,
2013-06-07 04:10:00,54.7,50.3,28.47,WSW,254,0.0,0.0,85,0.00,,---,0.00,VWS V14.01,2013-06-07 09:10:00,
2013-06-07 04:15:00,54.7,50.3,28.47,WSW,254,0.0,0.0,85,0.00,,---,0.00,VWS V14.01,2013-06-07 09:15:00,
2013-06-07 04:20:00,54.5,50.1,28.47,WSW,254,0.0,0.0,85,0.00,,---,0.00,VWS V14.01,2013-06-07 09:20:00,
2013-06-07 04:25:00,54.5,50.1,28.47,WSW,254,0.0,0.0,85,0.00,,---,0.00,VWS V14.01,2013-06-07 09:25:00,
2013-06-07 04:30:00,54.5,50.1,28.47,WSW,254,0.0,0.0,85,0.00,,---,0.00,VWS V14.01,2013-06-07 09:30:00,
2013-06-07 04:36:00,54.5,50.1,28.47,WSW,254,0.0,0.0,85,0.00,,---,0.00,VWS V14.01,2013-06-07 09:36:00,
2013-06-07 04:41:00,54.7,50.3,28.47,WSW,254,0.0,0.0,85,0.00,,---,0.00,VWS V14.01,2013-06-07 09:41:00,
2013-06-07 04:46:00,54.9,50.8,28.47,WSW,254,0.0,0.0,86,0.00,,---,0.00,VWS V14.01,2013-06-07 09:46:00,
2013-06-07 04:52:00,54.9,50.8,28.47,WSW,254,0.0,0.0,86,0.00,,---,0.00,VWS V14.01,2013-06-07 09:52:00,
2013-06-07 04:57:00,54.9,51.1,28.47,WSW,254,0.0,0.0,87,0.00,,---,0.00,VWS V14.01,2013-06-07 09:57:00,
2013-06-07 05:02:00,54.9,51.1,28.47,WSW,254,0.0,0.0,87,0.00,,---,0.00,VWS V14.01,2013-06-07 10:02:00,
2013-06-07 05:07:00,54.7,50.9,28.47,WSW,254,0.0,0.0,87,0.00,,---,0.00,VWS V14.01,2013-06-07 10:07:00,
2013-06-07 05:12:00,54.7,50.9,28.47,WSW,254,0.0,0.0,87,0.00,,---,0.00,VWS V14.01,2013-06-07 10:12:00,
2013-06-07 05:17:00,54.5,50.7,28.47,WSW,254,0.0,0.0,87,0.00,,---,0.00,VWS V14.01,2013-06-07 10:17:00,
2013-06-07 05:22:00,54.5,50.7,28.47,WSW,254,0.0,0.0,87,0.00,,---,0.00,VWS V14.01,2013-06-07 10:22:00,
2013-06-07 05:27:00,54.5,51.0,28.47,WSW,254,0.0,0.0,88,0.00,,---,0.00,VWS V14.01,2013-06-07 10:27:00,
2013-06-07 05:32:00,54.5,51.0,28.47,WSW,254,0.0,0.0,88,0.00,,---,0.00,VWS V14.01,2013-06-07 10:32:00,
2013-06-07 05:37:00,54.5,51.0,28.47,WSW,254,0.0,0.0,88,0.00,,---,0.00,VWS V14.01,2013-06-07 10:37:00,
2013-06-07 05:42:00,54.5,51.0,28.47,WSW,254,0.0,0.0,88,0.00,,---,0.00,VWS V14.01,2013-06-07 10:42:00,
2013-06-07 05:47:00,54.5,51.0,28.47,WSW,254,0.0,0.0,88,0.00,,---,0.00,VWS V14.01,2013-06-07 10:47:00,
2013-06-07 05:53:00,54.5,51.0,28.47,WSW,254,0.0,0.0,88,0.00,,---,0.00,VWS V14.01,2013-06-07 10:53:00,
2013-06-07 05:58:00,54.3,50.8,28.47,WSW,254,0.0,0.0,88,0.00,,---,0.00,VWS V14.01,2013-06-07 10:58:00,
2013-06-07 06:03:00,54.3,51.2,28.47,WSW,253,0.0,0.0,89,0.00,,---,0.00,VWS V14.01,2013-06-07 11:03:00,
2013-06-07 06:08:00,54.3,51.2,28.47,WSW,254,0.0,0.0,89,0.00,,---,0.00,VWS V14.01,2013-06-07 11:08:00,
2013-06-07 06:13:00,54.1,51.0,28.47,WSW,254,0.0,0.0,89,0.00,,---,0.00,VWS V14.01,2013-06-07 11:13:00,
2013-06-07 06:18:00,54.1,51.0,28.47,WSW,253,0.0,0.0,89,0.00,,---,0.00,VWS V14.01,2013-06-07 11:18:00,
2013-06-07 06:23:00,54.0,50.8,28.47,WSW,254,0.0,0.0,89,0.00,,---,0.00,VWS V14.01,2013-06-07 11:23:00,
2013-06-07 06:28:00,54.0,50.8,28.47,WSW,254,0.0,0.0,89,0.00,,---,0.00,VWS V14.01,2013-06-07 11:28:00,
2013-06-07 06:33:00,54.0,50.8,28.47,WSW,254,0.0,0.0,89,0.00,,---,0.00,VWS V14.01,2013-06-07 11:33:00,
2013-06-07 06:38:00,54.0,50.8,28.47,WSW,254,0.0,0.0,89,0.00,,---,0.00,VWS V14.01,2013-06-07 11:38:00,
2013-06-07 06:43:00,54.1,51.0,28.47,WSW,254,0.0,0.0,89,0.00,,---,0.00,VWS V14.01,2013-06-07 11:43:00,
2013-06-07 06:48:00,54.3,51.5,28.47,WSW,254,0.0,0.0,90,0.00,,---,0.00,VWS V14.01,2013-06-07 11:48:00,
2013-06-07 06:53:00,54.5,51.6,28.47,WSW,254,0.0,0.0,90,0.00,,---,0.00,VWS V14.01,2013-06-07 11:53:00,
2013-06-07 06:59:00,54.7,51.8,28.47,WSW,254,0.0,0.0,90,0.00,,---,0.00,VWS V14.01,2013-06-07 11:59:00,
2013-06-07 07:04:00,54.9,52.0,28.47,WSW,254,0.0,0.0,90,0.00,,---,0.00,VWS V14.01,2013-06-07 12:04:00,
2013-06-07 07:09:00,55.0,52.5,28.47,WSW,253,0.0,0.0,91,0.00,,---,0.00,VWS V14.01,2013-06-07 12:09:00,
2013-06-07 07:14:00,55.6,52.7,28.47,WSW,254,2.7,2.7,90,0.00,,---,0.00,VWS V14.01,2013-06-07 12:14:00,
2013-06-07 07:19:00,55.9,53.0,28.47,WSW,254,0.0,2.7,90,0.00,,---,0.00,VWS V14.01,2013-06-07 12:19:00,
2013-06-07 07:24:00,56.3,53.4,28.47,WSW,254,0.0,2.7,90,0.00,,---,0.00,VWS V14.01,2013-06-07 12:24:00,
2013-06-07 07:29:00,56.7,53.8,28.47,WSW,254,0.0,2.7,90,0.00,,---,0.00,VWS V14.01,2013-06-07 12:29:00,
2013-06-07 07:34:00,56.8,53.6,28.47,WSW,254,0.0,2.7,89,0.00,,---,0.00,VWS V14.01,2013-06-07 12:34:00,
2013-06-07 07:39:00,57.0,53.8,28.47,WSW,254,0.0,2.7,89,0.00,,---,0.00,VWS V14.01,2013-06-07 12:39:00,
2013-06-07 07:45:00,57.7,54.2,28.47,WSW,254,0.0,2.7,88,0.00,,---,0.00,VWS V14.01,2013-06-07 12:45:00,
2013-06-07 07:50:00,58.6,55.1,28.47,WSW,254,0.0,2.7,88,0.00,,---,0.00,VWS V14.01,2013-06-07 12:50:00,
2013-06-07 07:55:00,59.2,55.0,28.47,WSW,254,0.0,2.7,86,0.00,,---,0.00,VWS V14.01,2013-06-07 12:55:00,
2013-06-07 08:00:00,59.4,54.9,28.47,WSW,254,0.0,0.0,85,0.00,,---,0.00,VWS V14.01,2013-06-07 13:00:00,
2013-06-07 08:05:00,59.4,54.5,28.47,WSW,254,0.0,0.0,84,0.00,,---,0.00,VWS V14.01,2013-06-07 13:05:00,
2013-06-07 08:10:00,59.9,55.1,28.47,WSW,254,0.0,0.0,84,0.00,,---,0.00,VWS V14.01,2013-06-07 13:10:00,
2013-06-07 08:15:00,60.8,55.6,28.47,WSW,254,0.0,0.0,83,0.00,,---,0.00,VWS V14.01,2013-06-07 13:15:00,
2013-06-07 08:20:00,61.9,56.7,28.47,WSW,253,0.0,0.0,83,0.00,,---,0.00,VWS V14.01,2013-06-07 13:20:00,
2013-06-07 08:26:00,63.0,57.4,28.47,WSW,254,0.0,0.0,82,0.00,,---,0.00,VWS V14.01,2013-06-07 13:26:00,
2013-06-07 08:31:00,63.9,57.9,28.47,North,1,3.6,3.6,81,0.00,,---,0.00,VWS V14.01,2013-06-07 13:31:00,
2013-06-07 08:36:00,64.8,57.8,28.47,NNE,13,3.1,5.8,78,0.00,,---,0.00,VWS V14.01,2013-06-07 13:36:00,
2013-06-07 08:41:00,65.8,57.3,28.47,North,0,4.9,5.8,74,0.00,,---,0.00,VWS V14.01,2013-06-07 13:41:00,
2013-06-07 08:46:00,66.6,56.9,28.47,North,357,0.0,5.8,71,0.00,,---,0.00,VWS V14.01,2013-06-07 13:46:00,
2013-06-07 08:51:00,67.1,56.2,28.47,North,357,0.0,5.8,68,0.00,,---,0.00,VWS V14.01,2013-06-07 13:51:00,
2013-06-07 08:57:00,68.0,55.4,28.47,North,357,0.0,5.8,64,0.00,,---,0.00,VWS V14.01,2013-06-07 13:57:00,
2013-06-07 09:02:00,68.2,53.8,28.47,North,357,2.7,3.6,60,0.00,,---,0.00,VWS V14.01,2013-06-07 14:02:00,
2013-06-07 09:07:00,68.2,49.9,28.47,North,357,0.0,3.6,52,0.00,,---,0.00,VWS V14.01,2013-06-07 14:07:00,
2013-06-07 09:12:00,68.5,50.8,28.47,NNE,26,2.7,5.8,53,0.00,,---,0.00,VWS V14.01,2013-06-07 14:12:00,
2013-06-07 09:17:00,68.9,50.6,28.47,NE,36,0.0,5.8,52,0.00,,---,0.00,VWS V14.01,2013-06-07 14:17:00,
2013-06-07 09:22:00,69.4,51.1,28.50,NNE,15,0.0,5.8,52,0.00,,---,0.00,VWS V14.01,2013-06-07 14:22:00,
2013-06-07 09:27:00,70.0,51.0,28.50,NNE,15,0.0,5.8,51,0.00,,---,0.00,VWS V14.01,2013-06-07 14:27:00,
2013-06-07 09:32:00,70.3,50.8,28.50,North,0,2.7,5.8,50,0.00,,---,0.00,VWS V14.01,2013-06-07 14:32:00,
2013-06-07 09:37:00,70.5,51.0,28.50,North,7,2.7,5.8,50,0.00,,---,0.00,VWS V14.01,2013-06-07 14:37:00,
2013-06-07 09:43:00,70.7,51.2,28.50,North,5,0.0,5.8,50,0.00,,---,0.00,VWS V14.01,2013-06-07 14:43:00,
2013-06-07 09:48:00,70.9,50.8,28.50,North,357,0.0,5.8,49,0.00,,---,0.00,VWS V14.01,2013-06-07 14:48:00,
2013-06-07 09:53:00,71.2,51.1,28.47,North,6,4.0,5.8,49,0.00,,---,0.00,VWS V14.01,2013-06-07 14:53:00,
2013-06-07 09:58:00,71.4,50.2,28.47,NNE,21,3.6,5.8,47,0.00,,---,0.00,VWS V14.01,2013-06-07 14:58:00,
2013-06-07 10:03:00,72.0,51.2,28.47,East,98,2.7,3.6,48,0.00,,---,0.00,VWS V14.01,2013-06-07 15:03:00,
2013-06-07 10:08:00,72.1,49.0,28.47,NNE,25,5.8,5.8,44,0.00,,---,0.00,VWS V14.01,2013-06-07 15:08:00,
2013-06-07 10:13:00,72.1,49.0,28.47,NNE,21,0.0,5.8,44,0.00,,---,0.00,VWS V14.01,2013-06-07 15:13:00,
2013-06-07 10:18:00,72.5,49.4,28.47,NNE,19,0.0,5.8,44,0.00,,---,0.00,VWS V14.01,2013-06-07 15:18:00,
2013-06-07 10:24:00,72.9,50.3,28.47,North,0,2.7,5.8,45,0.00,,---,0.00,VWS V14.01,2013-06-07 15:24:00,
2013-06-07 10:29:00,73.0,49.2,28.47,North,357,2.2,5.8,43,0.00,,---,0.00,VWS V14.01,2013-06-07 15:29:00,
2013-06-07 10:34:00,73.4,48.9,28.47,North,357,0.0,5.8,42,0.00,,---,0.00,VWS V14.01,2013-06-07 15:34:00,
2013-06-07 10:39:00,73.8,49.9,28.47,North,357,2.7,5.8,43,0.00,,---,0.00,VWS V14.01,2013-06-07 15:39:00,
2013-06-07 10:44:00,74.1,49.6,28.47,South,175,0.0,5.8,42,0.00,,---,0.00,VWS V14.01,2013-06-07 15:44:00,
2013-06-07 10:49:00,74.8,50.9,28.47,SE,145,0.0,5.8,43,0.00,,---,0.00,VWS V14.01,2013-06-07 15:49:00,
2013-06-07 10:54:00,75.2,50.6,28.47,North,349,0.0,5.8,42,0.00,,---,0.00,VWS V14.01,2013-06-07 15:54:00,
2013-06-07 10:59:00,75.4,49.4,28.47,North,4,2.7,5.8,40,0.00,,---,0.00,VWS V14.01,2013-06-07 15:59:00,
2013-06-07 11:04:00,75.7,50.4,28.47,NNE,22,2.2,4.9,41,0.00,,---,0.00,VWS V14.01,2013-06-07 16:04:00,
2013-06-07 11:09:00,76.1,50.7,28.47,ESE,106,0.0,4.9,41,0.00,,---,0.00,VWS V14.01,2013-06-07 16:09:00,
2013-06-07 11:14:00,76.1,49.4,28.47,North,0,2.7,8.1,39,0.00,,---,0.00,VWS V14.01,2013-06-07 16:14:00,
2013-06-07 11:19:00,76.1,48.7,28.47,NNW,345,0.0,8.1,38,0.00,,---,0.00,VWS V14.01,2013-06-07 16:19:00,
2013-06-07 11:25:00,76.1,50.7,28.47,North,357,0.0,8.1,41,0.00,,---,0.00,VWS V14.01,2013-06-07 16:25:00,
2013-06-07 11:30:00,76.3,50.2,28.47,North,3,4.9,8.1,40,0.00,,---,0.00,VWS V14.01,2013-06-07 16:30:00,
2013-06-07 11:35:00,76.5,49.7,28.47,NNE,24,0.0,8.1,39,0.00,,---,0.00,VWS V14.01,2013-06-07 16:35:00,
2013-06-07 11:40:00,76.8,49.3,28.47,North,353,3.6,8.1,38,0.00,,---,0.00,VWS V14.01,2013-06-07 16:40:00,
2013-06-07 11:45:00,76.8,49.3,28.47,North,0,2.7,9.6,38,0.00,,---,0.00,VWS V14.01,2013-06-07 16:45:00,
2013-06-07 11:50:00,76.6,49.8,28.47,North,357,2.2,9.6,39,0.00,,---,0.00,VWS V14.01,2013-06-07 16:50:00,
2013-06-07 11:55:00,76.6,48.4,28.47,North,0,3.1,9.6,37,0.00,,---,0.00,VWS V14.01,2013-06-07 16:55:00,
2013-06-07 12:01:00,76.5,46.8,28.47,North,6,0.0,3.1,35,0.00,,---,0.00,VWS V14.01,2013-06-07 17:01:00,
2013-06-07 12:06:00,76.6,47.7,28.47,NW,305,0.0,3.1,36,0.00,,---,0.00,VWS V14.01,2013-06-07 17:06:00,
2013-06-07 12:11:00,76.8,49.3,28.47,North,357,4.0,5.8,38,0.00,,---,0.00,VWS V14.01,2013-06-07 17:11:00,
2013-06-07 12:16:00,77.2,48.2,28.47,East,95,3.6,6.3,36,0.00,,---,0.00,VWS V14.01,2013-06-07 17:16:00,
2013-06-07 12:21:00,77.7,48.7,28.44,North,1,4.0,6.3,36,0.00,,---,0.00,VWS V14.01,2013-06-07 17:21:00,
2013-06-07 12:26:00,77.9,48.1,28.44,NNE,22,3.1,6.7,35,0.00,,---,0.00,VWS V14.01,2013-06-07 17:26:00,
2013-06-07 12:32:00,77.7,46.3,28.44,SSW,192,3.1,6.7,33,0.00,,---,0.00,VWS V14.01,2013-06-07 17:32:00,
2013-06-07 12:37:00,77.5,47.0,28.44,South,173,2.2,6.7,34,0.00,,---,0.00,VWS V14.01,2013-06-07 17:37:00,
2013-06-07 12:42:00,77.9,48.1,28.44,SSE,168,0.0,6.7,35,0.00,,---,0.00,VWS V14.01,2013-06-07 17:42:00,
2013-06-07 12:48:00,78.1,48.2,28.44,SSE,166,0.0,6.7,35,0.00,,---,0.00,VWS V14.01,2013-06-07 17:48:00,
2013-06-07 12:53:00,78.4,48.5,28.44,East,92,3.6,6.7,35,0.00,,---,0.00,VWS V14.01,2013-06-07 17:53:00,
2013-06-07 12:58:00,78.6,48.7,28.44,ENE,69,0.0,6.7,35,0.00,,---,0.00,VWS V14.01,2013-06-07 17:58:00,
2013-06-07 13:03:00,78.8,48.1,28.44,NNE,23,0.0,0.0,34,0.00,,---,0.00,VWS V14.01,2013-06-07 18:03:00,
2013-06-07 13:08:00,79.2,48.4,28.44,North,11,5.8,5.8,34,0.00,,---,0.00,VWS V14.01,2013-06-07 18:08:00,
2013-06-07 13:13:00,79.0,46.6,28.44,NNE,17,3.1,6.3,32,0.00,,---,0.00,VWS V14.01,2013-06-07 18:13:00,
2013-06-07 13:18:00,78.6,47.9,28.44,SSE,151,2.7,6.3,34,0.00,,---,0.00,VWS V14.01,2013-06-07 18:18:00,
2013-06-07 13:23:00,78.6,47.9,28.44,North,357,2.2,6.3,34,0.00,,---,0.00,VWS V14.01,2013-06-07 18:23:00,
2013-06-07 13:28:00,78.6,47.1,28.44,NE,47,2.7,6.7,33,0.00,,---,0.00,VWS V14.01,2013-06-07 18:28:00,
2013-06-07 13:34:00,79.0,47.5,28.44,North,8,0.0,6.7,33,0.00,,---,0.00,VWS V14.01,2013-06-07 18:34:00,
2013-06-07 13:39:00,79.2,47.6,28.44,NNE,16,4.0,6.7,33,0.00,,---,0.00,VWS V14.01,2013-06-07 18:39:00,
2013-06-07 13:45:00,79.3,47.8,28.44,SE,133,0.0,6.7,33,0.00,,---,0.00,VWS V14.01,2013-06-07 18:45:00,
2013-06-07 13:50:00,79.7,48.1,28.44,NE,56,0.0,6.7,33,0.00,,---,0.00,VWS V14.01,2013-06-07 18:50:00,
2013-06-07 13:55:00,79.9,48.2,28.44,North,357,0.0,6.7,33,0.00,,---,0.00,VWS V14.01,2013-06-07 18:55:00,
2013-06-07 14:00:00,80.2,48.5,28.44,SE,143,0.0,6.7,33,0.00,,---,0.00,VWS V14.01,2013-06-07 19:00:00,
2013-06-07 14:05:00,80.6,48.0,28.44,NNE,13,3.6,7.6,32,0.00,,---,0.00,VWS V14.01,2013-06-07 19:05:00,
2013-06-07 14:10:00,80.4,47.9,28.41,South,186,0.0,7.6,32,0.00,,---,0.00,VWS V14.01,2013-06-07 19:10:00,
2013-06-07 14:15:00,80.6,48.9,28.41,NNE,14,3.1,7.6,33,0.00,,---,0.00,VWS V14.01,2013-06-07 19:15:00,
2013-06-07 14:21:00,80.2,47.7,28.41,NE,54,3.6,7.6,32,0.00,,---,0.00,VWS V14.01,2013-06-07 19:21:00,
2013-06-07 14:27:00,79.9,48.2,28.41,ESE,108,0.0,7.6,33,0.00,,---,0.00,VWS V14.01,2013-06-07 19:27:00,
2013-06-07 14:32:00,79.5,47.1,28.41,South,178,0.0,7.6,32,0.00,,---,0.00,VWS V14.01,2013-06-07 19:32:00,
2013-06-07 14:38:00,79.5,47.9,28.41,SE,146,3.1,7.6,33,0.00,,---,0.00,VWS V14.01,2013-06-07 19:38:00,
2013-06-07 14:43:00,79.9,47.4,28.41,SW,222,3.1,7.6,32,0.00,,---,0.00,VWS V14.01,2013-06-07 19:43:00,
2013-06-07 14:48:00,79.3,47.0,28.41,South,180,0.0,7.6,32,0.00,,---,0.00,VWS V14.01,2013-06-07 19:48:00,
2013-06-07 14:53:00,78.4,46.2,28.41,SSE,161,0.0,7.6,32,0.00,,---,0.00,VWS V14.01,2013-06-07 19:53:00,
2013-06-07 14:59:00,77.9,46.5,28.41,NE,36,0.0,7.6,33,0.00,,---,0.00,VWS V14.01,2013-06-07 19:59:00,
2013-06-07 15:04:00,77.5,46.2,28.41,SSE,160,4.0,4.0,33,0.00,,---,0.00,VWS V14.01,2013-06-07 20:04:00,
2013-06-07 15:09:00,77.7,47.1,28.41,SSE,152,2.2,4.0,34,0.00,,---,0.00,VWS V14.01,2013-06-07 20:09:00,
2013-06-07 15:14:00,78.6,47.9,28.41,NNE,21,4.5,4.5,34,0.00,,---,0.00,VWS V14.01,2013-06-07 20:14:00,
2013-06-07 15:19:00,79.2,47.6,28.41,NNE,14,2.2,5.8,33,0.00,,---,0.00,VWS V14.01,2013-06-07 20:19:00,
2013-06-07 15:25:00,79.0,46.6,28.41,North,2,2.2,5.8,32,0.00,,---,0.00,VWS V14.01,2013-06-07 20:25:00,
2013-06-07 15:30:00,78.6,47.1,28.41,SSE,156,4.0,5.8,33,0.00,,---,0.00,VWS V14.01,2013-06-07 20:30:00,
2013-06-07 15:35:00,78.6,47.1,28.41,SW,223,0.0,5.8,33,0.00,,---,0.00,VWS V14.01,2013-06-07 20:35:00,
2013-06-07 15:42:00,78.1,46.7,28.41,NNE,13,8.3,8.3,33,0.00,,---,0.00,VWS V14.01,2013-06-07 20:42:00,
2013-06-07 15:47:00,77.5,47.0,28.41,NNE,31,0.0,8.3,34,0.00,,---,0.00,VWS V14.01,2013-06-07 20:47:00,
2013-06-07 15:52:00,77.0,45.7,28.41,NNE,12,0.0,8.3,33,0.00,,---,0.00,VWS V14.01,2013-06-07 20:52:00,
2013-06-07 15:57:00,76.6,46.2,28.41,NNE,12,0.0,8.3,34,0.00,,---,0.00,VWS V14.01,2013-06-07 20:57:00,
2013-06-07 16:03:00,76.6,46.2,28.41,ENE,60,2.7,5.4,34,0.00,,---,0.00,VWS V14.01,2013-06-07 21:03:00,
2013-06-07 16:08:00,76.6,47.0,28.41,ENE,61,0.0,5.4,35,0.00,,---,0.00,VWS V14.01,2013-06-07 21:08:00,
2013-06-07 16:14:00,76.8,47.1,28.41,NNE,15,0.0,5.4,35,0.00,,---,0.00,VWS V14.01,2013-06-07 21:14:00,
2013-06-07 16:20:00,77.2,47.4,28.41,North,357,4.0,5.8,35,0.00,,---,0.00,VWS V14.01,2013-06-07 21:20:00,
2013-06-07 16:25:00,77.2,47.4,28.38,North,11,2.2,5.8,35,0.00,,---,0.00,VWS V14.01,2013-06-07 21:25:00,
2013-06-07 16:30:00,77.2,47.4,28.38,NNE,21,5.4,5.8,35,0.00,,---,0.00,VWS V14.01,2013-06-07 21:30:00,
2013-06-07 16:35:00,77.0,46.5,28.38,NNE,14,3.6,6.3,34,0.00,,---,0.00,VWS V14.01,2013-06-07 21:35:00,
2013-06-07 16:40:00,77.0,47.3,28.38,North,0,2.2,6.3,35,0.00,,---,0.00,VWS V14.01,2013-06-07 21:40:00,
2013-06-07 16:45:00,77.2,47.4,28.38,North,4,2.7,6.7,35,0.00,,---,0.00,VWS V14.01,2013-06-07 21:45:00,
2013-06-07 16:51:00,77.0,47.3,28.38,North,4,3.1,6.7,35,0.00,,---,0.00,VWS V14.01,2013-06-07 21:51:00,
2013-06-07 16:56:00,76.8,47.9,28.38,NE,48,0.0,6.7,36,0.00,,---,0.00,VWS V14.01,2013-06-07 21:56:00,
2013-06-07 17:01:00,76.6,47.7,28.38,North,1,4.0,4.0,36,0.00,,---,0.00,VWS V14.01,2013-06-07 22:01:00,
2013-06-07 17:07:00,76.3,46.7,28.38,North,8,0.0,5.4,35,0.00,,---,0.00,VWS V14.01,2013-06-07 22:07:00,
2013-06-07 17:12:00,76.3,47.4,28.38,SSE,155,2.2,5.4,36,0.00,,---,0.00,VWS V14.01,2013-06-07 22:12:00,
2013-06-07 17:18:00,76.3,47.4,28.38,SSE,152,4.9,5.4,36,0.00,,---,0.00,VWS V14.01,2013-06-07 22:18:00,
2013-06-07 17:23:00,76.3,47.4,28.38,SSE,163,0.0,5.4,36,0.00,,---,0.00,VWS V14.01,2013-06-07 22:23:00,
2013-06-07 17:28:00,76.5,47.5,28.38,NNE,20,2.7,5.4,36,0.00,,---,0.00,VWS V14.01,2013-06-07 22:28:00,
2013-06-07 17:34:00,76.3,47.4,28.38,ENE,70,2.2,5.4,36,0.00,,---,0.00,VWS V14.01,2013-06-07 22:34:00,
2013-06-07 17:39:00,75.9,47.1,28.35,ENE,71,0.0,5.4,36,0.00,,---,0.00,VWS V14.01,2013-06-07 22:39:00,
2013-06-07 17:44:00,75.9,47.1,28.35,SE,132,0.0,5.4,36,0.00,,---,0.00,VWS V14.01,2013-06-07 22:44:00,
2013-06-07 17:50:00,75.7,47.7,28.35,North,357,3.6,5.4,37,0.00,,---,0.00,VWS V14.01,2013-06-07 22:50:00,
2013-06-07 17:55:00,75.7,47.7,28.35,NNE,15,2.2,5.4,37,0.00,,---,0.00,VWS V14.01,2013-06-07 22:55:00,
2013-06-07 18:01:00,75.6,47.5,28.35,ESE,116,3.6,7.2,37,0.00,,---,0.00,VWS V14.01,2013-06-07 23:01:00,
2013-06-07 18:07:00,75.6,48.2,28.35,NNE,17,2.7,7.2,38,0.00,,---,0.00,VWS V14.01,2013-06-07 23:07:00,
2013-06-07 18:12:00,75.6,48.9,28.35,SSE,168,2.7,7.2,39,0.00,,---,0.00,VWS V14.01,2013-06-07 23:12:00,
2013-06-07 18:18:00,75.4,48.0,28.35,NNE,16,2.2,7.2,38,0.00,,---,0.00,VWS V14.01,2013-06-07 23:18:00,
2013-06-07 18:23:00,75.2,47.9,28.35,NNE,15,3.6,7.2,38,0.00,,---,0.00,VWS V14.01,2013-06-07 23:23:00,
2013-06-07 18:28:00,75.2,48.6,28.35,North,6,2.7,7.2,39,0.00,,---,0.00,VWS V14.01,2013-06-07 23:28:00,
2013-06-07 18:33:00,75.0,49.1,28.35,NE,54,0.0,7.2,40,0.00,,---,0.00,VWS V14.01,2013-06-07 23:33:00,
2013-06-07 18:38:00,75.0,48.4,28.35,NNE,20,0.0,7.2,39,0.00,,---,0.00,VWS V14.01,2013-06-07 23:38:00,
2013-06-07 18:43:00,75.0,49.1,28.35,SSE,160,2.2,7.2,40,0.00,,---,0.00,VWS V14.01,2013-06-07 23:43:00,
2013-06-07 18:49:00,75.0,48.4,28.35,South,175,2.2,7.2,39,0.00,,---,0.00,VWS V14.01,2013-06-07 23:49:00,
2013-06-07 18:54:00,75.0,48.4,28.35,North,5,3.6,7.2,39,0.00,,---,0.00,VWS V14.01,2013-06-07 23:54:00,
2013-06-07 18:59:00,74.8,48.9,28.35,East,91,0.0,7.2,40,0.00,,---,0.00,VWS V14.01,2013-06-07 23:59:00,
2013-06-07 19:04:00,74.8,48.2,28.35,SSE,168,2.7,6.3,39,0.00,,---,0.00,VWS V14.01,2013-06-08 00:04:00,
2013-06-07 19:09:00,74.8,48.2,28.35,SW,214,0.0,6.3,39,0.00,,---,0.00,VWS V14.01,2013-06-08 00:09:00,
2013-06-07 19:15:00,74.8,48.9,28.35,North,353,3.1,6.3,40,0.00,,---,0.00,VWS V14.01,2013-06-08 00:15:00,
2013-06-07 19:20:00,74.7,48.8,28.35,East,98,0.0,6.3,40,0.00,,---,0.00,VWS V14.01,2013-06-08 00:20:00,
2013-06-07 19:25:00,74.7,48.8,28.35,North,357,0.0,6.3,40,0.00,,---,0.00,VWS V14.01,2013-06-08 00:25:00,
2013-06-07 19:31:00,74.7,48.8,28.35,WSW,242,0.0,6.3,40,0.00,,---,0.00,VWS V14.01,2013-06-08 00:31:00,
2013-06-07 19:36:00,74.5,48.6,28.32,North,0,0.0,6.3,40,0.00,,---,0.00,VWS V14.01,2013-06-08 00:36:00,
2013-06-07 19:41:00,74.5,49.3,28.32,NNE,15,0.0,6.3,41,0.00,,---,0.00,VWS V14.01,2013-06-08 00:41:00,
2013-06-07 19:46:00,74.3,49.1,28.32,SSW,211,0.0,6.3,41,0.00,,---,0.00,VWS V14.01,2013-06-08 00:46:00,
2013-06-07 19:51:00,74.3,49.1,28.32,South,170,0.0,6.3,41,0.00,,---,0.00,VWS V14.01,2013-06-08 00:51:00,
2013-06-07 19:56:00,74.1,49.6,28.32,NNW,339,2.7,6.3,42,0.00,,---,0.00,VWS V14.01,2013-06-08 00:56:00,
2013-06-07 20:02:00,73.9,50.1,28.32,NE,52,2.7,3.1,43,0.00,,---,0.00,VWS V14.01,2013-06-08 01:02:00,
2013-06-07 20:07:00,73.8,49.9,28.32,NNW,340,0.0,3.1,43,0.00,,---,0.00,VWS V14.01,2013-06-08 01:07:00,
2013-06-07 20:12:00,73.6,49.7,28.32,North,0,0.0,3.1,43,0.00,,---,0.00,VWS V14.01,2013-06-08 01:12:00,
2013-06-07 20:17:00,73.4,50.2,28.32,NNE,24,0.0,4.0,44,0.00,,---,0.00,VWS V14.01,2013-06-08 01:17:00,
2013-06-07 20:23:00,73.0,50.5,28.32,NNE,24,0.0,4.0,45,0.00,,---,0.00,VWS V14.01,2013-06-08 01:23:00,
2013-06-07 20:28:00,72.9,50.3,28.32,North,7,0.0,4.0,45,0.00,,---,0.00,VWS V14.01,2013-06-08 01:28:00,
2013-06-07 20:33:00,72.7,50.7,28.32,NE,54,0.0,4.0,46,0.00,,---,0.00,VWS V14.01,2013-06-08 01:33:00,
2013-06-07 20:38:00,72.3,50.4,28.32,ENE,64,0.0,4.0,46,0.00,,---,0.00,VWS V14.01,2013-06-08 01:38:00,
2013-06-07 20:43:00,72.1,50.2,28.32,NE,53,0.0,4.0,46,0.00,,---,0.00,VWS V14.01,2013-06-08 01:43:00,
2013-06-07 20:49:00,71.8,50.5,28.32,NE,52,0.0,4.0,47,0.00,,---,0.00,VWS V14.01,2013-06-08 01:49:00,
2013-06-07 20:54:00,71.4,50.7,28.35,NE,52,0.0,4.0,48,0.00,,---,0.00,VWS V14.01,2013-06-08 01:54:00,
2013-06-07 20:59:00,71.1,51.0,28.35,NE,51,0.0,4.0,49,0.00,,---,0.00,VWS V14.01,2013-06-08 01:59:00,
2013-06-07 21:05:00,70.7,50.6,28.35,ENE,66,0.0,3.6,49,0.00,,---,0.00,VWS V14.01,2013-06-08 02:05:00,
2013-06-07 21:11:00,70.5,51.0,28.35,ENE,70,0.0,3.6,50,0.00,,---,0.00,VWS V14.01,2013-06-08 02:11:00,
2013-06-07 21:16:00,70.3,50.8,28.35,ENE,70,0.0,3.6,50,0.00,,---,0.00,VWS V14.01,2013-06-08 02:16:00,
2013-06-07 21:21:00,70.2,50.7,28.35,NNE,23,0.0,3.6,50,0.00,,---,0.00,VWS V14.01,2013-06-08 02:21:00,
2013-06-07 21:27:00,69.8,50.9,28.35,NW,324,0.0,3.6,51,0.00,,---,0.00,VWS V14.01,2013-06-08 02:27:00,
2013-06-07 21:32:00,69.6,51.2,28.35,NW,324,0.0,3.6,52,0.00,,---,0.00,VWS V14.01,2013-06-08 02:32:00,
2013-06-07 21:37:00,69.4,51.1,28.35,NW,324,0.0,3.6,52,0.00,,---,0.00,VWS V14.01,2013-06-08 02:37:00,
2013-06-07 21:42:00,69.3,50.9,28.35,NW,324,0.0,3.6,52,0.00,,---,0.00,VWS V14.01,2013-06-08 02:42:00,
2013-06-07 21:48:00,69.1,51.2,28.35,NW,313,0.0,3.6,53,0.00,,---,0.00,VWS V14.01,2013-06-08 02:48:00,
2013-06-07 21:53:00,68.9,51.1,28.35,SSE,158,0.0,3.6,53,0.00,,---,0.00,VWS V14.01,2013-06-08 02:53:00,
2013-06-07 21:59:00,68.7,51.4,28.35,SSE,158,0.0,3.6,54,0.00,,---,0.00,VWS V14.01,2013-06-08 02:59:00,
2013-06-07 22:04:00,68.4,51.1,28.35,ENE,78,0.0,0.0,54,0.00,,---,0.00,VWS V14.01,2013-06-08 03:04:00,
2013-06-07 22:09:00,68.4,51.1,28.35,ENE,78,0.0,0.0,54,0.00,,---,0.00,VWS V14.01,2013-06-08 03:09:00,
2013-06-07 22:14:00,68.2,51.4,28.35,ENE,78,0.0,0.0,55,0.00,,---,0.00,VWS V14.01,2013-06-08 03:14:00,
2013-06-07 22:20:00,68.2,51.4,28.35,East,79,0.0,0.0,55,0.00,,---,0.00,VWS V14.01,2013-06-08 03:20:00,
2013-06-07 22:25:00,68.2,51.9,28.35,NNE,18,0.0,0.0,56,0.00,,---,0.00,VWS V14.01,2013-06-08 03:25:00,
2013-06-07 22:31:00,68.2,51.9,28.35,NNE,18,0.0,0.0,56,0.00,,---,0.00,VWS V14.01,2013-06-08 03:31:00,
2013-06-07 22:37:00,68.0,51.7,28.35,SSE,158,0.0,3.6,56,0.00,,---,0.00,VWS V14.01,2013-06-08 03:37:00,
2013-06-07 22:42:00,67.8,51.6,28.35,SW,227,0.0,3.6,56,0.00,,---,0.00,VWS V14.01,2013-06-08 03:42:00,
2013-06-07 22:47:00,67.6,51.9,28.35,NW,324,2.7,3.6,57,0.00,,---,0.00,VWS V14.01,2013-06-08 03:47:00,
2013-06-07 22:52:00,67.5,51.7,28.35,SSW,211,0.0,3.6,57,0.00,,---,0.00,VWS V14.01,2013-06-08 03:52:00,
2013-06-07 22:58:00,67.3,51.5,28.35,SE,130,0.0,3.6,57,0.00,,---,0.00,VWS V14.01,2013-06-08 03:58:00,
2013-06-07 23:01:00,67.1,51.8,28.35,ENE,61,0.0,3.1,58,0.00,,---,0.00,VWS V14.01,2013-06-08 04:01:00,
2013-06-07 23:02:00,67.1,51.8,28.35,North,0,0.0,3.1,58,0.00,,---,0.00,VWS V14.01,2013-06-08 04:02:00,
2013-06-07 23:04:00,67.1,51.8,28.35,North,0,0.0,3.1,58,0.00,,---,0.00,VWS V14.01,2013-06-08 04:04:00,
2013-06-07 23:09:00,66.9,51.7,28.35,NNE,20,0.0,3.1,58,0.00,,---,0.00,VWS V14.01,2013-06-08 04:09:00,
2013-06-07 23:14:00,66.7,52.0,28.35,SSE,158,0.0,3.6,59,0.00,,---,0.00,VWS V14.01,2013-06-08 04:14:00,
2013-06-07 23:19:00,66.6,51.8,28.35,WSW,244,0.0,3.6,59,0.00,,---,0.00,VWS V14.01,2013-06-08 04:19:00,
2013-06-07 23:24:00,66.2,51.9,28.35,SE,134,3.6,4.0,60,0.00,,---,0.00,VWS V14.01,2013-06-08 04:24:00,
2013-06-07 23:29:00,66.0,52.2,28.35,South,181,0.0,4.0,61,0.00,,---,0.00,VWS V14.01,2013-06-08 04:29:00,
2013-06-07 23:34:00,65.8,52.5,28.35,South,181,0.0,4.0,62,0.00,,---,0.00,VWS V14.01,2013-06-08 04:34:00,
2013-06-07 23:40:00,65.7,52.3,28.35,North,357,0.0,4.0,62,0.00,,---,0.00,VWS V14.01,2013-06-08 04:40:00,
2013-06-07 23:45:00,65.5,52.6,28.35,North,357,0.0,4.0,63,0.00,,---,0.00,VWS V14.01,2013-06-08 04:45:00,
2013-06-07 23:50:00,65.3,52.4,28.35,WSW,258,0.0,4.0,63,0.00,,---,0.00,VWS V14.01,2013-06-08 04:50:00,
2013-06-07 23:55:00,65.1,52.7,28.35,South,176,0.0,4.0,64,0.00,,---,0.00,VWS V14.01,2013-06-08 04:55:00,